Wind_Speed
34 32 36 35 36 37 38 38 40 41 38 36 35 32 28 25 23 23 23 23 21 19 16 16 15 11 12 10 8 8 6 4 1 3 7 8 6 12 19 17 17 16 19
34 36 35 36 36 42 44 44 43 45 42 39 34 32 27 27 25 24 23 20 19 18 16 13 12 9 9 8 6 6 5 4 2 5 9 8 12 17 17 19 22 16 24
35 38 37 37 40 39 48 50 50 45 40 39 35 30 29 27 25 22 21 19 17 15 12 11 9 7 7 6 7 6 6 5 4 5 7 9 12 15 18 23 21 25 21
37 37 40 40 44 47 43 47 49 44 39 35 33 30 28 25 23 21 20 18 16 14 11 9 7 6 6 5 6 8 8 8 7 5 8 10 15 15 20 20 20 20 23
43 39 42 46 50 48 46 44 45 42 36 33 32 29 26 23 21 20 18 16 14 13 10 8 7 7 6 5 7 8 8 6 6 7 8 12 13 15 17 20 21 23 22
39 45 42 42 45 49 48 46 43 38 34 33 31 29 26 22 17 16 15 14 12 10 8 6 5 4 3 5 5 7 6 8 7 9 10 12 15 17 18 20 20 20 11
41 43 41 45 44 45 47 43 38 36 34 31 29 26 25 21 17 16 14 12 11 9 7 5 3 4 6 7 8 5 6 6 8 13 13 13 15 17 20 20 18 19 19
39 41 41 42 43 38 38 40 37 34 30 28 27 25 24 19 16 14 12 11 9 8 6 5 4 5 5 8 7 8 8 12 13 11 11 15 19 22 19 20 20 22 29
37 37 37 38 37 39 38 36 34 32 29 27 24 23 22 18 14 12 11 9 8 7 5 4 6 6 4 7 10 13 12 18 14 8 11 17 19 19 19 20 21 20 18
33 33 33 34 33 35 36 35 32 30 29 26 23 20 20 17 12 10 9 8 7 6 5 3 3 3 7 9 13 8 17 15 8 15 21 24 23 20 16 13 16 18 18
30 28 32 34 37 36 34 32 31 29 29 26 24 19 18 15 13 12 9 8 6 4 2 2 4 6 9 10 10 15 15 11 18 23 25 25 24 23 21 19 18 18 19
32 33 33 31 31 32 31 28 28 28 27 24 22 19 16 15 13 11 9 8 3 2 2 4 5 7 9 10 11 12 13 16 23 24 25 26 26 27 27 26 25 23 21
32 31 30 28 27 27 28 27 26 24 24 22 20 19 16 12 9 8 8 5 4 2 2 3 7 7 10 12 12 13 15 20 22 24 26 27 26 27 28 29 27 26 24
32 30 28 28 26 24 23 22 23 22 21 20 19 18 15 10 7 6 7 8 7 5 5 8 8 11 13 14 17 17 19 21 22 24 25 27 28 28 29 28 29 29 25
30 29 27 25 24 22 19 18 18 13 13 18 17 15 14 11 6 5 5 6 7 8 10 12 15 16 18 19 20 21 21 22 23 23 26 28 30 30 30 29 28 28 22
28 26 25 25 24 24 24 22 14 15 15 15 14 11 11 7 5 2 2 4 5 5 12 16 17 18 20 22 24 26 26 26 26 27 28 30 32 31 31 32 30 27 24
26 24 23 23 24 25 24 25 23 17 14 13 11 9 7 6 3 1 4 6 9 12 13 15 18 19 23 25 27 28 30 30 29 30 31 32 33 33 31 30 28 26 25
20 20 19 19 20 20 21 22 22 23 21 15 9 8 6 4 2 3 6 9 11 12 14 17 20 22 25 28 30 32 33 33 32 32 33 34 34 33 32 28 27 27 27
19 18 17 18 18 19 18 16 15 15 14 13 10 6 4 4 1 5 9 11 14 16 17 20 22 25 29 31 33 34 34 34 33 32 33 33 33 31 32 31 30 28 29
14 14 15 17 18 18 17 17 15 14 12 10 6 4 3 0 3 6 10 13 17 19 21 24 27 29 31 33 34 34 34 33 32 31 31 31 31 30 30 29 27 26 25
13 14 13 14 15 15 17 17 15 13 9 7 6 3 2 3 6 10 13 16 19 22 25 27 30 31 32 32 33 33 33 33 32 31 30 30 30 30 30 30 28 28 28
13 14 15 15 15 15 16 14 13 11 10 9 6 5 6 7 10 13 16 20 22 24 26 28 29 30 31 32 33 33 34 34 33 31 30 30 32 32 31 30 28 28 27
14 14 14 15 16 16 16 14 12 10 9 7 7 7 8 10 12 15 19 22 24 26 25 26 28 31 32 33 31 31 33 34 33 31 31 32 33 33 31 31 29 28 27
14 16 17 17 17 16 14 13 11 11 9 8 7 8 10 12 15 19 22 24 26 27 27 28 30 31 33 33 32 30 31 31 31 32 31 31 31 32 33 33 33 32 31
14 16 17 18 18 16 14 13 13 11 9 8 9 12 13 16 19 21 24 26 28 29 30 31 32 32 33 32 30 29 28 28 29 29 28 28 32 35 36 36 36 33 33
16 17 17 17 16 15 15 13 11 10 9 10 13 14 16 19 22 24 27 28 30 31 32 33 34 33 33 31 30 30 30 30 31 31 32 33 34 36 37 38 38 35 34
Wind_Direction
164 159 161 162 162 155 147 142 144 145 143 139 133 129 126 125 128 132 134 136 135 126 119 114 106 103 96 87 74 68 68 60 45 290 311 327 305 322 327 330 327 329 322
151 148 143 143 141 139 136 137 141 137 137 135 132 127 128 131 137 140 137 137 130 127 121 117 113 110 91 78 70 61 50 43 343 293 312 306 314 325 328 329 329 327 330
129 130 126 126 128 125 128 133 136 134 135 132 125 135 137 138 144 139 135 134 128 122 121 118 114 101 87 69 50 33 17 359 347 309 303 300 312 326 324 326 328 329 326
116 116 116 117 120 122 121 128 129 131 129 129 136 134 139 140 138 136 135 131 129 124 118 108 99 88 79 53 31 16 349 338 336 331 320 314 320 321 321 325 322 321 317
111 109 114 118 120 120 123 127 126 124 132 136 135 139 134 136 140 138 135 131 128 121 105 99 83 77 66 45 15 358 343 355 346 341 326 317 314 320 321 321 311 315 315
108 109 111 113 116 123 126 126 125 131 136 141 137 135 135 134 135 133 133 132 121 111 111 102 86 61 28 3 2 343 336 349 353 342 321 311 314 312 313 317 316 323 327
109 110 113 118 116 120 126 127 131 139 142 138 136 134 127 125 131 133 128 120 118 115 108 97 70 17 359 354 351 358 342 340 334 328 325 316 322 324 323 322 321 312 300
105 107 112 115 116 121 128 134 139 137 137 136 131 129 123 120 125 121 123 121 112 103 84 66 54 20 19 345 339 337 323 328 330 325 313 323 324 321 319 316 310 308 305
102 107 115 120 124 133 131 132 133 135 134 130 131 131 122 115 118 121 123 122 112 90 64 53 29 22 18 341 339 335 319 329 323 302 307 317 320 316 316 311 314 326 320
106 112 120 126 124 128 130 133 136 132 130 135 130 124 119 113 112 128 131 124 102 85 67 66 65 3 344 337 328 330 333 325 303 312 319 319 322 324 325 317 315 319 318
111 122 125 131 133 134 133 135 136 135 137 133 122 119 119 114 101 89 88 80 80 84 84 8 350 345 325 330 326 323 326 307 317 316 318 324 329 330 333 333 324 314 298
126 126 125 127 131 133 135 136 138 138 130 126 124 117 108 104 93 87 80 66 83 114 34 353 346 330 323 318 317 324 319 308 311 318 325 328 329 330 329 325 320 311 298
123 123 125 128 129 135 137 138 136 135 132 132 128 120 113 115 111 98 89 85 66 39 14 331 322 312 326 323 325 323 311 319 323 324 325 322 322 320 319 319 318 316 311
125 124 127 129 132 133 136 139 138 139 135 135 134 128 123 116 101 94 71 54 29 10 342 330 326 327 331 324 320 323 323 321 320 317 316 315 315 317 318 320 316 318 304
130 132 130 128 128 128 124 127 128 131 145 143 137 138 141 118 88 67 31 17 6 329 317 329 340 337 329 329 327 324 320 320 320 321 318 316 315 316 314 316 310 306 283
134 134 135 133 130 125 120 109 107 119 127 132 134 137 117 112 122 107 8 5 359 326 332 335 331 331 328 323 318 316 318 322 324 321 318 315 312 311 308 309 305 295 285
144 144 143 145 145 138 133 126 124 117 116 123 130 124 122 122 135 67 6 349 331 328 321 324 324 321 316 313 313 314 315 320 320 317 313 311 309 307 305 302 299 295 289
156 157 158 158 157 155 153 150 147 146 146 141 140 140 125 120 82 22 335 335 319 313 318 316 314 314 313 312 313 313 314 315 314 313 310 307 306 304 301 297 296 291 288
166 164 163 162 167 164 158 152 157 161 163 167 166 161 137 114 350 321 319 314 308 309 310 309 313 315 313 312 312 312 312 311 311 309 308 307 307 306 301 299 295 292 292
174 171 171 172 172 171 168 171 176 178 182 182 178 165 134 189 301 301 303 305 302 305 312 315 316 314 313 313 313 313 312 312 311 310 310 310 310 308 300 296 294 291 290
185 176 177 183 188 187 187 187 182 185 184 190 200 192 256 273 296 300 302 302 307 312 315 317 315 314 314 315 314 313 311 310 310 310 310 310 311 306 306 301 293 292 290
193 185 185 190 194 196 198 195 189 186 190 198 199 226 255 285 291 299 307 310 313 314 315 313 313 315 317 316 316 313 310 308 310 311 309 308 308 307 305 302 296 292 289
193 195 195 198 201 199 196 195 193 195 203 208 224 244 268 284 294 305 308 312 315 314 315 317 318 318 320 318 316 312 308 307 309 308 305 305 305 303 302 295 292 289 287
207 200 197 199 201 201 203 202 204 206 213 229 249 270 283 294 303 309 313 316 317 318 321 322 321 321 321 319 316 314 311 311 309 305 303 299 298 299 299 295 291 290 288
211 210 205 200 199 201 205 211 214 220 233 251 267 281 291 301 307 312 317 321 321 321 322 322 322 323 323 321 319 317 314 312 307 305 303 301 297 297 293 290 291 288 290
208 209 207 203 204 208 213 216 223 237 252 266 276 285 297 306 311 318 323 324 321 321 322 322 323 325 325 323 323 322 321 320 315 311 303 296 290 288 290 288 291 285 284
Height
703 710 717 726 733 740 748 759 768 778 788 801 808 814 818 823 826 834 837 839 844 846 848 848 850 852 853 855 855 856 857 857 857 857 857 855 853 851 848 845 842 838 834
701 709 719 727 737 742 749 758 773 782 792 802 809 816 821 824 832 837 839 844 846 847 848 850 852 854 855 856 857 857 858 858 857 856 854 853 851 848 845 841 838 835 830
704 712 722 733 741 750 754 764 776 787 798 802 810 819 823 828 835 838 841 845 847 849 851 853 855 855 856 858 858 859 859 858 856 855 852 850 848 845 841 838 834 828 827
708 719 727 739 748 755 766 771 777 790 804 810 813 821 827 832 836 840 844 846 848 849 852 854 857 857 858 859 858 858 859 856 854 853 851 848 847 843 839 834 828 826 822
713 727 735 744 752 759 773 782 788 795 806 817 818 826 828 835 840 841 844 847 850 852 853 856 858 858 859 860 857 857 857 855 854 852 849 846 844 839 836 832 828 822 817
724 731 740 752 759 767 778 790 792 803 813 820 822 824 828 837 842 844 846 849 851 852 855 857 857 858 857 858 857 857 857 855 853 850 848 845 841 837 834 830 824 820 812
732 740 752 761 766 774 784 791 801 811 817 822 825 828 831 837 844 846 847 851 852 854 855 855 856 858 857 856 856 855 854 853 851 848 846 844 839 837 832 826 822 819 815
742 750 761 768 775 785 793 797 808 814 823 828 829 834 837 841 845 846 850 851 853 854 855 855 856 856 856 855 855 852 850 849 847 844 845 841 837 834 829 823 818 815 810
755 763 772 779 784 792 797 803 810 820 827 831 836 840 841 842 845 848 850 853 853 853 855 856 856 856 856 855 850 848 848 845 842 842 839 837 833 828 824 818 815 812 804
769 776 783 788 793 799 803 810 816 823 829 839 842 842 840 844 846 848 849 851 852 854 855 855 856 856 853 852 849 848 845 842 840 836 833 829 825 822 819 817 813 810 808
782 790 793 797 799 805 810 815 822 830 836 839 839 842 843 845 848 850 852 853 852 853 854 853 853 853 854 850 848 845 843 838 835 832 826 821 819 816 813 811 810 807 804
793 796 799 804 809 811 817 825 831 834 835 837 842 845 846 849 850 852 853 852 852 852 852 852 852 852 850 847 844 842 839 833 830 825 820 815 812 809 807 805 803 800 798
798 803 806 812 816 820 824 828 831 833 837 840 843 845 847 850 852 853 854 853 852 852 850 850 850 851 846 840 838 837 833 829 825 820 815 811 808 805 802 798 795 793 790
804 809 814 818 823 825 827 829 831 834 835 839 844 846 849 852 852 853 852 853 853 851 850 849 847 843 840 838 836 832 829 825 821 816 811 806 803 799 796 794 789 786 783
812 816 820 822 824 828 831 832 833 838 840 840 842 846 850 851 853 853 854 854 851 850 849 845 839 837 837 834 830 827 825 821 817 812 806 801 797 793 790 788 785 781 778
815 819 823 825 828 830 832 835 842 842 841 843 845 848 849 851 854 856 855 850 849 846 843 840 838 835 832 829 826 821 818 814 811 806 801 797 792 788 784 781 779 776 771
819 823 825 829 832 833 835 836 838 845 846 848 850 850 850 850 852 852 850 847 846 844 843 839 835 832 830 826 821 817 811 808 805 801 797 791 787 782 779 775 772 768 762
824 826 829 831 833 834 836 839 841 842 846 848 851 850 847 847 848 848 849 846 846 844 840 836 833 830 825 820 815 810 805 801 798 795 791 786 781 777 773 769 765 760 754
824 826 828 831 834 836 837 841 845 847 847 848 849 847 844 843 845 846 847 847 846 842 839 834 830 825 820 815 810 804 800 796 792 788 783 779 774 771 766 762 757 752 748
827 828 829 832 836 837 837 840 844 846 847 847 845 843 842 844 844 846 847 846 844 840 835 830 824 820 815 810 804 799 794 789 785 780 775 771 767 765 760 756 751 746 741
828 828 830 835 838 838 839 840 841 842 843 845 845 844 844 844 844 844 844 844 840 835 830 824 819 814 809 804 798 793 788 782 778 774 769 765 761 757 754 750 744 739 734
829 829 832 835 839 841 841 842 841 841 842 843 843 845 845 843 842 841 840 838 835 830 825 819 813 808 803 798 793 787 781 775 771 767 763 759 754 750 746 742 737 732 727
827 830 833 835 838 840 841 842 841 842 842 842 842 842 843 842 841 838 837 834 829 824 820 813 807 801 797 792 787 781 775 769 765 761 755 752 747 743 739 734 729 724 720
830 830 832 835 839 840 841 841 841 841 842 842 842 842 842 840 838 835 832 828 823 818 813 807 801 796 790 784 779 773 768 763 758 753 750 745 740 736 731 726 721 716 711
832 834 834 834 835 837 839 840 841 842 841 841 841 840 839 837 835 831 827 822 817 812 806 801 795 789 783 777 772 766 761 756 752 747 741 737 732 727 722 718 712 708 703
829 831 832 833 834 835 836 837 839 840 840 840 839 838 835 833 829 825 820 815 811 805 800 794 788 782 775 770 765 760 753 748 742 737 733 727 722 717 713 709 703 699 695